Other Public Products
Issued by NWS Grand Forks, ND

Home | Current Version | Previous Version | Graphics & Text | Print | Product List | Glossary On
Versions: 1 2 3 4 5 6 7 8 9 10 11 12 13 14 15 16 17 18 19 20 21 22 23 24 25 26 27 28 29 30 31 32 33 34 35 36 37 38 39 40 41 42 43 44 45 46 47 48 49 50
000
FPUS83 KFGF 202131
OPUFGF
PRAIRIE TO PINES WEATHER ROUNDUP
NATIONAL WEATHER SERVICE EASTERN NORTH DAKOTA/GRAND FORKS ND
400 PM CDT FRI OCT 20 2017

 **SATELLITE DATA USED TO AUGMENT SKY COVER AT AUTOMATED STATIONS**
 *****  WEATHER ACROSS EASTERN NORTH DAKOTA  *****

CITY           SKY/WX    TMP DP  RH WIND       PRES   REMARKS
GRAND FORKS    PTSUNNY   78  53  41 S26G40    29.38F
GRAND FORKS AF FAIR      78  52  40 S23G33    29.37F
GRAND CITY NWS NOT AVBL
BUXTON           N/A     76  51  41 S18G36      N/A
DEVILS LAKE    FAIR      70  51  51 S14       29.33F
FARGO          FAIR      77  53  43 S26G41    29.44F
WAHPETON ARPT  NOT AVBL
$$

 *****  WEATHER ACROSS CENTRAL AND WESTERN NORTH DAKOTA  *****

CITY           SKY/WX    TMP DP  RH WIND       PRES   REMARKS
JAMESTOWN      FAIR      72  51  47 S25G36    29.38F
BISMARCK       FAIR      76  49  38 S21       29.29F
MINOT          FAIR      75  37  25 S12       29.23F
MINOT AFB      FAIR      72  38  29 S10       29.21F
GARRISON         N/A     79  39  23 S16G22    29.24F
WILLISTON        N/A    N/A N/A N/A MISG      29.21F
DICKINSON      FAIR      80  33  18 S15       29.24F
HETTINGER      FAIR      83  34  17 S18       29.28F
$$

 *****  OTHER OBSERVATIONS NORTHEAST NORTH DAKOTA  *****

CITY           SKY/WX    TMP DP  RH WIND       PRES   REMARKS
WALHALLA       FAIR     N/A N/A N/A S22G32    29.31F
LANGDON        FAIR      73  50  43 S26G36    29.34S
CAVALIER       FAIR      77  50  38 S16G28    29.33F
GRAFTON        FAIR      75  52  43 S23G30    29.37F
CANDO          FAIR      72  50  46 S18G28    29.32S
FORT TOTTEN      N/A     72  49  44 S17       29.95S
ROLLA          FAIR      72  45  37 S15       29.29F
RUGBY          FAIR      73  46  38 SE12      29.26S
 ***** THE ABOVE OBSERVATIONS ARE NON NWS ARE NOT QUALITY
        CONTROLLED AND MAY MIS-REPORT RAIN FOR SNOW...
$$

 *****  OTHER OBSERVATIONS SOUTHEAST NORTH DAKOTA *****

CITY           SKY/WX    TMP DP  RH WIND       PRES   REMARKS
COOPERSTOWN    FAIR      70  52  52 S28G38    29.39S
VALLEY CITY    FAIR      70  52  52 S24G30    29.43S
OAKES          NOT AVBL
GWINNER        CLEAR     77  54  44 S30G37    29.44F
SHEYENNE NWR     N/A     75  53  45 S21       29.95S
BUFFALO          N/A     74  44  34 S22G37      N/A
WYNDMERE       NOT AVBL
 ***** THE ABOVE OBSERVATIONS ARE NON NWS ARE NOT QUALITY
       CONTROLLED AND MAY MIS-REPORT RAIN FOR SNOW...
$$

  *****  WEATHER ACROSS NORTHERN MINNESOTA  *****

CITY           SKY/WX    TMP DP  RH WIND       PRES   REMARKS
FLAG ISLAND    FAIR      61  48  63 SE18      29.46F
WARROAD        FAIR      79  54  41 SE18      29.46F
ROSEAU         FAIR      81  52  36 S23G33    29.43F
HALLOCK        FAIR      77  50  38 S26G33    29.37F
THF RVR FALLS  FAIR      77  51  40 S29G37    29.47S
HALSTAD          N/A     74  54  48 S18G33      N/A
FOSSTON        FAIR      77  46  33 S25G35    29.49F
BAUDETTE       FAIR      77  46  33 S18G33    29.52F
WASKISH        FAIR      75  48  38 S9G21     29.54F
CROOKSTON      FAIR      75  52  43 S31G40    29.43S
$$
  *****  WEATHER ACROSS CENTRAL AND WEST MINNESOTA  *****

CITY           SKY/WX    TMP DP  RH WIND       PRES   REMARKS
BEMIDJI        FAIR      74  51  44 S20G26    29.55F
PARK RAPIDS    FAIR      74  52  46 S20G38    29.58F
WADENA         FAIR      73  52  46 S22G30    29.58F
DETROIT LAKES  FAIR      73  52  46 S20G31    29.54S
MOORHEAD       FAIR      73  52  46 S23G31    29.46F
FERGUS FALLS   FAIR      75  54  46 S22G36    29.52F
ELBOW LAKE     FAIR      75  55  49 S22G30    29.55F
MORRIS MN      FAIR      77  52  41 S26G35    29.56S
STAPLES        FAIR      73  48  40 S18G28    29.61F
WHEATON        FAIR      75  52  43 S23G32    29.52F
$$
  *****  WEATHER ELSEWHERE ACROSS MINNESOTA  *****

CITY           SKY/WX    TMP DP  RH WIND       PRES   REMARKS
DULUTH         FAIR      73  47  39 SW20G30   29.74S
INTRNTL FALLS  FAIR      78  43  28 S13G24    29.58F
ELY            FAIR      73  45  35 S14       29.70F
CLOQUET        FAIR      75  45  33 S9G16     29.72F
BRAINERD       FAIR      73  50  44 S22G37    29.65F
HIBBING        FAIR      72  48  42 S9G18     29.68F
ALEXANDRIA     FAIR      77  52  41 S18G33    29.61F
SAINT CLOUD    FAIR      75  52  44 S23G33    29.68F
MINNEAPOLIS    PTSUNNY   77  49  37 S20G25    29.75F
$$

  *****  WEATHER ACROSS SOUTH DAKOTA  *****

CITY           SKY/WX    TMP DP  RH WIND       PRES   REMARKS
SIOUX FALLS    PTSUNNY   76  57  51 S24G33    29.61F
BROOKINGS      FAIR      73  55  53 S26G35    29.59F
WATERTOWN      FAIR      72  55  55 S24G35    29.54F
HURON          FAIR      75  54  47 S21G32    29.49F
SISSETON         N/A     77  54  44 S20G33    29.49F
ABERDEEN       FAIR      76  53  44 S30G40    29.44F
MITCHELL       FAIR      78  55  44 S21G29    29.52F
PIERRE         FAIR      80  52  37 S24G31    29.36F
MOBRIDGE       FAIR      76  51  41 S23       29.32F
RAPID CITY     FAIR      83  35  18 SW14G23   29.35F
$$

  *****  SOME WEATHER IN NEARBY STATES *****

CITY           SKY/WX    TMP DP  RH WIND       PRES   REMARKS
GLASGOW MT     FAIR      72  32  23 SE12      29.17F
GREAT FALLS MT CLOUDY    50  29  44 W24G39    29.37R
CHEYENNE WY    FAIR      71  30  21 S13       29.60F
SCOTTSBLUFF NE FAIR      79  38  22 SE12      29.48F
OMAHA NE       FAIR      78  58  49 S30G39    29.74F
DES MOINES IA  PTSUNNY   73  51  46 S21G35    29.86F
DAVENPORT IA   FAIR      79  46  31 S14G24    30.00F
CHICAGO IL     PTSUNNY   78  50  37 S12       30.06F
EAU CLAIRE WI  FAIR      76  45  33 S14G23    29.84F
LA CROSSE WI   FAIR      76  50  40 S14       29.88F
$$

  *****  SOME NATIONAL WEATHER *****

CITY           SKY/WX    TMP DP  RH WIND       PRES   REMARKS
LA GUARDIA NY  FAIR      73  37  27 NW14      30.09S
RALEIGH NC     FAIR      76  48  37 E6        30.20S
ATLANTA GA     FAIR      79  25  13 SE7       30.19F
NEW ORLEANS LA CLOUDY    79  71  76 E15       30.05S
OKLAHOMA CITY  PTSUNNY   77  59  53 S22G30    29.87F
ALBUQUERQUE NM PTSUNNY   71  44  37 S10G18    29.89F
SALT LAKE CITY LGT RAIN  52  29  41 NW18G29   29.86R
LOS ANGELES CA FAIR      69  59  70 W20       29.91F
BOISE ID       CLOUDY    51  33  50 W15G28    29.84R
SEATTLE WA     PTSUNNY   51  46  83 SW18      29.77R
$$

*** WEATHER ACROSS MANITOBA...SASKATCHEWAN AND ONTARIO ***
                ***ONTARIO***

CITY           SKY/WX    TMP DP  RH WIND       PRES   REMARKS
GERALDTON      MOSUNNY   68  48  49 SE7       29.81S
THUNDER BAY    PTSUNNY   59  50  72 NE9       29.77S
SIOUX LOOKOUT  CLOUDY    72  50  46 S8G17     29.61F
TORONTO        MOSUNNY   72  34  25 S10       30.15F
BIG TROUT LK   SUNNY     43  34  70 E9G18     29.83F
PICKLE LAKE    MOSUNNY   63  41  45 E15       29.69F
DRYDEN         SUNNY     72  48  43 S12       29.58F
KENORA         PTSUNNY   72  50  46 S15       29.51F
$$
                *** MANITOBA***

CITY           SKY/WX    TMP DP  RH WIND       PRES   REMARKS
BRANDON        PTSUNNY   72  46  40 S13G20    29.25F
DAUPHIN        SUNNY     63  46  55 SE21      29.21S HAZE
ISLAND LAKE    PTSUNNY   48  37  66 E18G26    29.60F
PILOT MOUND      N/A     73  46  38 S23G32      N/A
THE PAS        CLOUDY    48  37  66 E8        29.36F
THOMPSON       CLOUDY    41  34  75 E12G20    29.60F
WINNIPEG       PTSUNNY   75  52  43 S24G35    29.33F
LYNN LAKE      CLOUDY    36  34  93 E13G21    29.53F
CHURCHILL      PTSUNNY   36  28  75 SE18G28   29.93F
GILLAM         CLOUDY    39  32  75 E9G21     29.77F
$$
                ***SASKATCHEWAN***

CITY           SKY/WX    TMP DP  RH WIND       PRES   REMARKS
ESTEVAN        MOSUNNY   77  30  18 SW8       29.19F
KINDERSLEY     CLOUDY    59  36  41 VRB2      29.20R
LLOYDMINSTER   CLOUDY    50  37  62 NW10      29.23S
PRINCE ALBERT  CLOUDY    52  37  58 E9        29.24F
REGINA         PTSUNNY   70  32  24 SE9       29.16F
YORKTON        SUNNY     77  34  20 SE15G22   29.17F



USA.gov is the U.S. government's official web portal to all federal, state and local government web resources and services.